Fayetteville, AR

8:13 AM CDT on July 20, 2017 (GMT -0500)
Drake

Weather History for KFYV - October, 2013

Change the Weather History Date:

Wednesday, October 23, 2013

  Actual Average Record
Temperature  
Mean Temperature 49 °F 56 °F  
Max Temperature 64 °F 68 °F 83 °F (2003)
Min Temperature 33 °F 44 °F 22 °F (1952)
Degree Days  
Heating Degree Days 16 10  
Month to date heating degree days 186 162  
Since 1 July heating degree days 198 214  
Cooling Degree Days 0 0  
Month to date cooling degree days 44 18  
Year to date cooling degree days 1390 1301  
Moisture  
Dew Point 37 °F    
Average Humidity 68    
Maximum Humidity 100    
Minimum Humidity 35    
Precipitation  
Precipitation 0.00 in 0.14 in 1.29 in (1951)
Month to date precipitation 4.72 3.24  
Year to date precipitation 39.46 39.95  
Sea Level Pressure  
Sea Level Pressure 30.11 in    
Wind  
Wind Speed 2 mph (SSE)    
Max Wind Speed 16 mph    
Max Gust Speed 48 mph    
Visibility 10 miles    
Events      
T = Trace of Precipitation, MM = Missing Value Source: NWS Daily Summary

Daily Weather History Graph

Daily Weather History Graph

Search for Another Location

Airport or City:

Trip Planner

Search our weather history database for the weather conditions in past years. The results will help you decide how hot, cold, wet, or windy it might be!

Date:

Astronomy

Oct. 23, 2013 Rise Set
Actual Time 7:30 AM CDT 6:30 PM CDT
Civil Twilight 7:04 AM CDT 6:56 PM CDT
Nautical Twilight 6:34 AM CDT 7:26 PM CDT
Astronomical Twilight 6:05 AM CDT 7:56 PM CDT
Moon 10:06 PM CDT (10/23) 11:43 AM CDT (10/23)
Length of Visible Light 11h 51m
Length of Day
10h 59m
Waning Gibbous, 79% of the Moon is Illuminated
Oct 23
Waning Gibbous
Oct 26
Last Quarter
Nov 3
New
Nov 9
First Quarter
Nov 17
Full

Hourly Weather History & Observations

Time (CDT) Temp. Windchill Dew Point Humidity Pressure Visibility Wind Dir Wind Speed Gust Speed Precip Events Conditions
12:53 AM 39.9 °F - 39.0 °F 97% 30.07 in 10.0 mi Calm Calm - N/A   Clear
1:53 AM 39.0 °F - 37.9 °F 96% 30.09 in 10.0 mi Calm Calm - N/A   Clear
2:53 AM 37.9 °F - 36.0 °F 93% 30.10 in 10.0 mi Calm Calm - N/A   Clear
3:53 AM 37.0 °F - 36.0 °F 96% 30.10 in 7.0 mi Calm Calm - N/A   Clear
4:53 AM 34.0 °F - 34.0 °F 100% 30.11 in 10.0 mi Calm Calm - N/A   Clear
5:53 AM 35.1 °F - 34.0 °F 96% 30.13 in 10.0 mi Calm Calm - N/A   Clear
6:53 AM 34.0 °F - 33.1 °F 96% 30.16 in 10.0 mi Calm Calm - N/A   Clear
7:53 AM 33.1 °F - 33.1 °F 100% 30.18 in 10.0 mi Calm Calm - N/A   Clear
8:53 AM 37.9 °F - 37.0 °F 97% 30.19 in 10.0 mi Calm Calm - N/A   Partly Cloudy
9:53 AM 46.0 °F 43.9 °F 37.9 °F 73% 30.19 in 10.0 mi ENE 4.6 mph - N/A   Clear
10:53 AM 50.0 °F - 36.0 °F 59% 30.19 in 10.0 mi ENE 5.8 mph - N/A   Clear
11:53 AM 51.1 °F - 36.0 °F 56% 30.18 in 10.0 mi SE 3.5 mph - N/A   Clear
12:53 PM 55.9 °F - 37.0 °F 49% 30.16 in 10.0 mi Variable 3.5 mph - N/A   Clear
1:53 PM 60.1 °F - 32.0 °F 35% 30.12 in 8.0 mi Calm Calm - N/A   Clear
2:53 PM 61.0 °F - 34.0 °F 36% 30.09 in 10.0 mi South 8.1 mph - N/A   Clear
3:53 PM 62.1 °F - 37.0 °F 39% 30.07 in 10.0 mi WSW 3.5 mph - N/A   Clear
4:53 PM 63.0 °F - 36.0 °F 37% 30.05 in 10.0 mi Calm Calm - N/A   Clear
5:53 PM 61.0 °F - 39.9 °F 46% 30.02 in 3.0 mi SSW 3.5 mph - N/A   Haze
6:53 PM 55.9 °F - 42.1 °F 60% 30.04 in 10.0 mi Calm Calm - N/A   Clear
7:53 PM 48.0 °F - 43.0 °F 83% 30.08 in 10.0 mi Calm Calm - N/A   Clear
8:53 PM 46.0 °F - 43.0 °F 89% 30.10 in 10.0 mi Calm Calm - N/A   Clear
9:53 PM 44.1 °F - 42.1 °F 93% 30.10 in 10.0 mi Calm Calm - N/A   Clear
10:53 PM 43.0 °F 41.3 °F 42.1 °F 97% 30.11 in 10.0 mi South 3.5 mph - N/A   Clear
11:53 PM 42.1 °F - 41.0 °F 96% 30.11 in 10.0 mi Calm Calm - N/A   Clear